DW8284 Weather Reports


time (UTC)temp
C
wind
direction
speed
KPH
gust
KPH
rain 1hr
cm
rain 24hr
cm
rain mn
cm
humidity
%
barometer
mb
20260906040135 23 59 0.0 4.8 0.00 0.00 0.00 89 1015.8
20260906035542 23 59 1.6 4.8 0.00 0.00 0.00 89 1015.8
20260906035040 23 76 1.6 4.8 0.00 0.00 0.00 89 1015.8
20260906034604 23 93 1.6 4.8 0.00 0.00 0.00 88 1015.8
20260906034041 23 61 1.6 4.8 0.00 0.00 0.00 88 1015.6
20260906033540 24 0 0.0 3.2 0.00 0.00 0.00 88 1015.5
20260906033057 24 93 1.6 3.2 0.00 0.00 0.00 88 1015.5
20260906032539 24 59 0.0 4.8 0.00 0.00 0.00 88 1015.6
20260906032038 24 80 0.0 4.8 0.00 0.00 0.00 88 1015.4
20260906031601 24 51 1.6 3.2 0.00 0.00 0.00 87 1015.5
20260906031038 25 76 1.6 3.2 0.00 0.00 0.00 87 1015.5
20260906030539 25 41 1.6 3.2 0.00 0.00 0.00 87 1015.4
20260906030100 25 205 1.6 3.2 0.00 0.00 0.00 87 1015.5
20260906025538 25 93 1.6 3.2 0.00 0.00 0.00 86 1015.5
20260906025040 25 51 0.0 3.2 0.00 0.00 0.00 86 1015.4
20260906024601 25 44 0.0 3.2 0.00 0.00 0.00 86 1015.4
20260906024043 25 93 1.6 3.2 0.00 0.00 0.00 85 1015.4
20260906023541 25 111 0.0 3.2 0.00 0.00 0.00 85 1015.3
20260906023058 25 93 1.6 3.2 0.00 0.00 0.00 85 1015.2
20260906022540 25 0 0.0 3.2 0.00 0.00 0.00 85 1015.3
20260906022041 25 41 0.0 3.2 0.00 0.00 0.00 85 1015.3
20260906021606 26 0 0.0 0.0 0.00 0.00 0.00 85 1015.2
20260906021040 26 0 0.0 0.0 0.00 0.00 0.00 85 1015.2
20260906020540 26 0 0.0 0.0 0.00 0.00 0.00 85 1015.1
20260906020106 26 0 0.0 0.0 0.00 0.00 0.00 84 1015.0
20260906015539 26 0 0.0 6.4 0.00 0.00 0.00 84 1014.9
20260906015040 26 0 0.0 6.4 0.00 0.00 0.00 84 1015.0
20260906014600 26 0 0.0 3.2 0.00 0.00 0.00 84 1015.1
20260906014040 26 34 1.6 4.8 0.00 0.00 0.00 84 1015.0
20260906013540 26 0 0.0 4.8 0.00 0.00 0.00 83 1014.9
20260906013051 27 0 1.6 4.8 0.00 0.00 0.00 83 1014.8
20260906012538 27 51 1.6 4.8 0.00 0.00 0.00 83 1014.7
20260906012038 27 0 0.0 4.8 0.00 0.00 0.00 82 1014.6
20260906011602 27 24 1.6 4.8 0.00 0.00 0.00 82 1014.6
20260906011044 27 76 1.6 4.8 0.00 0.00 0.00 82 1014.4
20260906010541 27 51 1.6 4.8 0.00 0.00 0.00 81 1014.4
20260906010106 27 57 1.6 6.4 0.00 0.00 0.00 81 1014.3
20260906005538 27 76 1.6 6.4 0.00 0.00 0.00 81 1014.3
20260906005038 28 123 1.6 4.8 0.00 0.00 0.00 81 1014.1
20260906004557 28 76 1.6 4.8 0.00 0.00 0.00 81 1014.2
20260906004039 28 61 0.0 3.2 0.00 0.00 0.00 81 1014.1
20260906003540 28 80 1.6 4.8 0.00 0.00 0.00 80 1014.1
20260906003102 28 80 1.6 4.8 0.00 0.00 0.00 80 1013.9
20260906002537 28 68 1.6 4.8 0.00 0.00 0.00 79 1013.9
20260906002041 28 46 1.6 4.8 0.00 0.00 0.00 79 1013.9
20260906001610 29 34 1.6 4.8 0.00 0.00 0.00 78 1013.9
20260906001040 29 45 0.0 4.8 0.00 0.00 0.00 78 1013.9
20260906000541 29 44 0.0 4.8 0.00 0.00 0.00 78 1014.0
20260906000056 29 93 0.0 3.2 0.00 0.00 0.00 78 1014.0
20260905235538 29 111 0.0 4.8 0.00 0.00 0.00 77 1013.9
20260905235038 30 61 1.6 4.8 0.00 0.00 0.00 77 1013.8
20260905234553 30 64 0.0 6.4 0.00 0.00 0.00 77 1013.8
20260905234040 30 44 1.6 6.4 0.00 0.00 0.00 77 1013.8
20260905233539 30 93 1.6 6.4 0.00 0.00 0.00 76 1013.6
20260905233105 30 115 0.0 6.4 0.00 0.00 0.00 77 1013.6
20260905232541 30 59 1.6 6.4 0.00 0.00 0.00 76 1013.5
20260905232041 30 51 1.6 8.0 0.00 0.00 0.00 76 1013.4
20260905231557 30 137 1.6 8.0 0.00 0.00 0.00 77 1013.4
20260905231039 30 68 1.6 6.4 0.00 0.00 0.00 77 1013.4
20260905230538 31 51 0.0 3.2 0.00 0.00 0.00 77 1013.5
20260905230055 31 0 0.0 6.4 0.00 0.00 0.00 77 1013.6
20260905225538 31 178 1.6 6.4 0.00 0.00 0.00 77 1013.5
20260905225040 31 129 1.6 4.8 0.00 0.00 0.00 77 1013.4
20260905224606 31 51 0.0 4.8 0.00 0.00 0.00 77 1013.3
20260905224040 31 68 0.0 3.2 0.00 0.00 0.00 76 1013.4
20260905223540 31 0 0.0 6.4 0.00 0.00 0.00 76 1013.4
20260905223057 31 61 1.6 6.4 0.00 0.00 0.00 76 1013.5
20260905222540 31 153 1.6 4.8 0.00 0.00 0.00 75 1013.5
20260905222041 31 85 0.0 3.2 0.00 0.00 0.00 76 1013.5
20260905221554 31 0 0.0 3.2 0.00 0.00 0.00 76 1013.5
20260905221041 31 68 0.0 3.2 0.00 0.00 0.00 76 1013.5
20260905220544 31 137 0.0 3.2 0.00 0.00 0.00 76 1013.4
20260905215540 31 0 0.0 3.2 0.00 0.00 0.00 75 1013.3
20260905215042 31 51 0.0 3.2 0.00 0.00 0.00 75 1013.4
20260905214600 31 0 0.0 3.2 0.00 0.00 0.00 75 1013.4
20260905214041 31 0 0.0 3.2 0.00 0.00 0.00 74 1013.4
20260905213538 31 0 0.0 4.8 0.00 0.00 0.00 74 1013.4
20260905213106 31 0 0.0 4.8 0.00 0.00 0.00 74 1013.4
20260905212538 32 51 0.0 4.8 0.00 0.00 0.00 75 1013.4
20260905212040 32 0 0.0 4.8 0.00 0.00 0.00 74 1013.3
20260905211558 32 0 0.0 4.8 0.00 0.00 0.00 75 1013.3
20260905211041 32 59 1.6 4.8 0.00 0.00 0.00 75 1013.3
20260905210541 32 0 0.0 3.2 0.00 0.00 0.00 75 1013.3
20260905210108 32 0 0.0 3.2 0.00 0.00 0.00 75 1013.4
20260905205538 32 119 0.0 3.2 0.00 0.00 0.00 75 1013.3
20260905205037 32 51 0.0 3.2 0.00 0.00 0.00 75 1013.4
20260905204549 32 265 0.0 3.2 0.00 0.00 0.00 75 1013.4
20260905204044 32 0 0.0 3.2 0.00 0.00 0.00 75 1013.4
20260905203542 32 0 0.0 3.2 0.00 0.00 0.00 75 1013.6
20260905203058 32 0 0.0 3.2 0.00 0.00 0.00 75 1013.5
20260905202539 32 0 0.0 3.2 0.00 0.00 0.00 75 1013.6
20260905202040 32 68 0.0 3.2 0.00 0.00 0.00 75 1013.7
20260905201603 32 0 0.0 3.2 0.00 0.00 0.00 75 1013.6
20260905201040 32 51 0.0 3.2 0.00 0.00 0.00 75 1013.6
20260905200538 32 0 0.0 6.4 0.00 0.00 0.00 75 1013.6
20260905200120 32 0 0.0 6.4 0.00 0.00 0.00 75 1013.7
20260905195538 32 0 0.0 3.2 0.00 0.00 0.00 75 1013.7
20260905195038 32 0 0.0 3.2 0.00 0.00 0.00 75 1013.6
20260905194552 32 0 0.0 3.2 0.00 0.00 0.00 74 1013.6
20260905194038 32 247 0.0 3.2 0.00 0.00 0.00 76 1013.7
20260905193538 32 0 0.0 4.8 0.00 0.00 0.00 76 1013.6
20260905193100 32 265 0.0 4.8 0.00 0.00 0.00 75 1013.7
20260905192538 32 0 0.0 4.8 0.00 0.00 0.00 77 1013.7
20260905192042 32 38 0.0 3.2 0.00 0.00 0.00 76 1013.7
20260905191555 32 0 0.0 3.2 0.00 0.00 0.00 75 1013.8
20260905191038 32 51 0.0 3.2 0.00 0.00 0.00 75 1013.9
20260905190539 32 9 0.0 3.2 0.00 0.00 0.00 76 1013.9
20260905190058 32 0 0.0 3.2 0.00 0.00 0.00 77 1013.9
20260905185542 32 0 0.0 3.2 0.00 0.00 0.00 76 1014.0
20260905185042 32 0 0.0 3.2 0.00 0.00 0.00 75 1014.0
20260905184606 32 0 0.0 3.2 0.00 0.00 0.00 78 1014.0
20260905184038 32 0 0.0 3.2 0.00 0.00 0.00 76 1014.0
20260905183539 32 232 0.0 3.2 0.00 0.00 0.00 77 1014.1
20260905183059 32 119 0.0 3.2 0.00 0.00 0.00 78 1014.1
20260905182544 32 162 0.0 3.2 0.00 0.00 0.00 77 1014.2
20260905182038 31 26 0.0 4.8 0.00 0.00 0.00 76 1014.1
20260905181557 31 41 0.0 4.8 0.00 0.00 0.00 77 1014.1
20260905181039 31 247 0.0 4.8 0.00 0.00 0.00 77 1014.1
20260905180545 31 0 0.0 4.8 0.00 0.00 0.00 77 1014.1
20260905180112 31 0 0.0 4.8 0.00 0.00 0.00 77 1014.2
20260905175542 31 34 0.0 4.8 0.00 0.00 0.00 77 1014.2
20260905175043 31 178 0.0 3.2 0.00 0.00 0.00 78 1014.3
20260905174605 31 265 0.0 3.2 0.00 0.00 0.00 78 1014.3
20260905174041 31 0 0.0 3.2 0.00 0.00 0.00 79 1014.3
20260905173538 31 34 0.0 4.8 0.00 0.00 0.00 79 1014.3
20260905173056 31 26 0.0 4.8 0.00 0.00 0.00 79 1014.3
20260905172538 31 0 0.0 3.2 0.00 0.00 0.00 79 1014.3
20260905172038 31 0 0.0 3.2 0.00 0.00 0.00 80 1014.3
20260905171606 31 68 0.0 3.2 0.00 0.00 0.00 80 1014.5
20260905171039 31 0 0.0 3.2 0.00 0.00 0.00 81 1014.5
20260905170539 30 137 0.0 3.2 0.00 0.00 0.00 81 1014.5
20260905170100 30 51 0.0 3.2 0.00 0.00 0.00 82 1014.6
20260905165540 30 0 0.0 3.2 0.00 0.00 0.00 83 1014.5
20260905165040 30 0 0.0 4.8 0.00 0.00 0.00 82 1014.6
20260905164557 30 119 1.6 4.8 0.00 0.00 0.00 82 1014.7
20260905164040 30 0 0.0 4.8 0.00 0.00 0.00 84 1014.7
20260905163538 30 0 0.0 4.8 0.00 0.00 0.00 84 1014.8
20260905163103 30 26 0.0 3.2 0.00 0.00 0.00 83 1014.9
20260905162541 30 9 0.0 3.2 0.00 0.00 0.00 83 1014.8
20260905162039 30 265 0.0 3.2 0.00 0.00 0.00 84 1015.0
20260905161601 29 68 0.0 3.2 0.00 0.00 0.00 84 1014.9
20260905161038 29 0 0.0 3.2 0.00 0.00 0.00 83 1014.8
20260905160539 29 111 0.0 4.8 0.00 0.00 0.00 83 1014.8
20260905155538 28 80 0.0 3.2 0.00 0.00 0.00 84 1014.8
20260905155038 28 221 0.0 3.2 0.00 0.00 0.00 84 1014.7
20260905154557 28 0 0.0 3.2 0.00 0.00 0.00 85 1014.7
20260905154040 28 0 0.0 3.2 0.00 0.00 0.00 85 1014.6
20260905153540 28 0 0.0 3.2 0.00 0.00 0.00 86 1014.5
20260905153059 28 221 0.0 3.2 0.00 0.00 0.00 87 1014.5
20260905152541 28 80 0.0 3.2 0.00 0.00 0.00 87 1014.5
20260905152042 27 0 0.0 3.2 0.00 0.00 0.00 88 1014.6
20260905151556 27 325 0.0 3.2 0.00 0.00 0.00 89 1014.5
20260905151041 27 0 0.0 3.2 0.00 0.00 0.00 89 1014.5
20260905150538 27 0 0.0 4.8 0.00 0.00 0.00 90 1014.4
20260905150058 27 0 0.0 4.8 0.00 0.00 0.00 90 1014.4
20260905145537 27 0 0.0 3.2 0.00 0.00 0.00 92 1014.5
20260905145041 26 0 0.0 3.2 0.00 0.00 0.00 92 1014.3
20260905144604 26 0 0.0 3.2 0.00 0.00 0.00 93 1014.4
20260905144039 26 0 0.0 3.2 0.00 0.00 0.00 93 1014.3
20260905143538 26 0 0.0 3.2 0.00 0.00 0.00 94 1014.2
20260905143059 26 0 0.0 3.2 0.00 0.00 0.00 95 1014.1
20260905142540 26 0 0.0 3.2 0.00 0.00 0.00 95 1014.0
20260905142037 26 0 0.0 3.2 0.00 0.00 0.00 96 1014.0
20260905141601 26 0 0.0 1.6 0.00 0.00 0.00 96 1014.0
20260905141038 26 0 0.0 1.6 0.00 0.00 0.00 96 1014.2
20260905140538 25 0 0.0 3.2 0.00 0.00 0.00 96 1014.2
20260905140105 25 0 0.0 3.2 0.00 0.00 0.00 96 1014.2
20260905135540 25 0 0.0 1.6 0.00 0.00 0.00 96 1014.1
20260905135040 25 0 0.0 1.6 0.00 0.00 0.00 96 1014.1
20260905134558 25 0 0.0 1.6 0.00 0.00 0.00 96 1014.2
20260905134040 25 0 0.0 1.6 0.00 0.00 0.00 96 1014.0
20260905133538 25 0 0.0 1.6 0.00 0.00 0.00 97 1014.1
20260905133130 25 0 0.0 1.6 0.00 0.00 0.00 97 1014.3
20260905132538 25 0 0.0 1.6 0.00 0.00 0.00 97 1014.4
20260905132038 24 0 0.0 1.6 0.00 0.00 0.00 97 1014.3
20260905131608 24 0 0.0 1.6 0.00 0.00 0.00 97 1014.2
20260905131040 24 0 0.0 1.6 0.00 0.00 0.00 97 1014.1
20260905130538 24 0 0.0 1.6 0.00 0.00 0.00 97 1014.1
20260905130058 24 0 0.0 1.6 0.00 0.00 0.00 97 1014.0
20260905125539 24 0 0.0 1.6 0.00 0.00 0.00 97 1013.9
20260905125040 24 0 0.0 1.6 0.00 0.00 0.00 97 1013.8
20260905124555 24 0 0.0 1.6 0.00 0.00 0.00 97 1013.8
20260905124038 23 0 0.0 1.6 0.00 0.00 0.00 97 1013.9
20260905123538 23 0 0.0 1.6 0.00 0.00 0.00 97 1013.9
20260905123055 23 0 0.0 1.6 0.00 0.00 0.00 97 1013.8
20260905122540 23 0 0.0 1.6 0.00 0.00 0.00 97 1013.8
20260905122039 23 0 0.0 1.6 0.00 0.00 0.00 97 1013.8
20260905121559 23 0 0.0 1.6 0.00 0.00 0.00 97 1013.7
20260905121038 23 0 0.0 1.6 0.00 0.00 0.00 96 1013.7
20260905120539 23 0 0.0 1.6 0.00 0.00 0.00 96 1013.6
20260905120100 23 0 0.0 1.6 0.00 0.00 0.00 96 1013.6
20260905115538 23 0 0.0 1.6 0.00 0.00 0.00 96 1013.6
20260905115039 23 0 0.0 1.6 0.00 0.00 0.00 96 1013.5
20260905114608 23 0 0.0 0.0 0.00 0.00 0.00 96 1013.4
20260905114038 23 0 0.0 0.0 0.00 0.00 0.00 96 1013.4
20260905113539 23 0 0.0 0.0 0.00 0.00 0.00 96 1013.5
20260905113058 23 0 0.0 1.6 0.00 0.00 0.00 96 1013.5
20260905112538 23 0 0.0 1.6 0.00 0.00 0.00 96 1013.4
20260905112037 23 0 0.0 1.6 0.00 0.00 0.00 96 1013.4
20260905111608 23 0 0.0 1.6 0.00 0.00 0.00 96 1013.3
20260905111038 24 0 0.0 1.6 0.00 0.00 0.00 96 1013.4
20260905110537 24 0 0.0 1.6 0.00 0.00 0.00 96 1013.3
20260905105538 24 0 0.0 1.6 0.00 0.00 0.00 96 1013.4
20260905105039 24 0 0.0 1.6 0.00 0.00 0.00 96 1013.3
20260905104553 24 0 0.0 1.6 0.00 0.00 0.00 95 1013.3
20260905104038 24 0 0.0 1.6 0.00 0.00 0.00 95 1013.4
20260905103538 24 0 0.0 1.6 0.00 0.00 0.00 95 1013.4
20260905103100 24 0 0.0 1.6 0.00 0.00 0.00 96 1013.4
20260905102545 24 0 0.0 1.6 0.00 0.00 0.00 96 1013.4
20260905102041 24 0 0.0 1.6 0.00 0.00 0.00 96 1013.4
20260905101556 24 0 0.0 1.6 0.00 0.00 0.00 96 1013.4
20260905101037 24 137 0.0 1.6 0.00 0.00 0.00 96 1013.3
20260905100538 24 0 0.0 1.6 0.00 0.00 0.00 95 1013.4
20260905100059 24 0 0.0 1.6 0.00 0.00 0.00 95 1013.4
20260905095538 24 0 0.0 0.0 0.00 0.00 0.00 95 1013.5
20260905095038 24 0 0.0 0.0 0.00 0.00 0.00 95 1013.4
20260905094605 24 0 0.0 1.6 0.00 0.00 0.00 95 1013.5
20260905094037 24 0 0.0 1.6 0.00 0.00 0.00 95 1013.4
20260905093538 24 0 0.0 1.6 0.00 0.00 0.00 95 1013.4
20260905093102 24 0 0.0 1.6 0.00 0.00 0.00 95 1013.4
20260905092539 24 0 0.0 1.6 0.00 0.00 0.00 95 1013.4
20260905092040 25 0 0.0 1.6 0.00 0.00 0.00 95 1013.5
20260905091606 25 0 0.0 1.6 0.00 0.00 0.00 95 1013.5
20260905091039 25 0 0.0 1.6 0.00 0.00 0.00 95 1013.5
20260905090538 25 0 0.0 0.0 0.00 0.00 0.00 95 1013.4
20260905085538 25 0 0.0 1.6 0.00 0.00 0.00 95 1013.5
20260905085038 25 0 0.0 1.6 0.00 0.00 0.00 95 1013.6
20260905084556 25 0 0.0 1.6 0.00 0.00 0.00 95 1013.5
20260905084038 25 0 0.0 0.0 0.00 0.00 0.00 95 1013.6
20260905083541 25 0 0.0 1.6 0.00 0.00 0.00 95 1013.5
20260905083053 25 0 0.0 1.6 0.00 0.00 0.00 95 1013.6
20260905082538 25 0 0.0 1.6 0.00 0.00 0.00 95 1013.6
20260905082042 25 0 0.0 1.6 0.00 0.00 0.00 95 1013.6
20260905081603 25 0 0.0 1.6 0.00 0.00 0.00 95 1013.5
20260905081040 25 0 0.0 1.6 0.00 0.00 0.00 95 1013.6
20260905080540 25 0 0.0 1.6 0.00 0.00 0.00 95 1013.6
20260905080105 25 0 0.0 1.6 0.00 0.00 0.00 95 1013.7
20260905075540 25 0 0.0 1.6 0.00 0.00 0.00 95 1013.7
20260905075043 25 0 0.0 1.6 0.00 0.00 0.00 94 1013.7
20260905074559 25 0 0.0 1.6 0.00 0.00 0.00 94 1013.7
20260905074040 25 0 0.0 1.6 0.00 0.00 0.00 94 1013.6
20260905073537 25 0 0.0 0.0 0.00 0.00 0.00 94 1013.6
20260905073101 25 0 0.0 0.0 0.00 0.00 0.00 94 1013.7
20260905072542 25 0 0.0 0.0 0.00 0.00 0.00 94 1013.8
20260905072043 25 0 0.0 0.0 0.00 0.00 0.00 94 1013.8
20260905071602 25 0 0.0 0.0 0.00 0.00 0.00 94 1013.7
20260905071044 25 0 0.0 0.0 0.00 0.00 0.00 94 1013.8
20260905070540 25 0 0.0 0.0 0.00 0.00 0.00 94 1013.9
20260905070057 25 0 0.0 1.6 0.00 0.00 0.00 94 1013.8
20260905065540 25 0 0.0 1.6 0.00 0.00 0.00 94 1013.8
20260905065040 26 0 0.0 0.0 0.00 0.00 0.00 94 1013.9
20260905064603 26 0 0.0 1.6 0.00 0.00 0.00 94 1013.8
20260905064042 26 0 0.0 1.6 0.00 0.00 0.00 94 1013.8
20260905063539 26 0 0.0 0.0 0.00 0.00 0.00 94 1013.8
20260905063109 26 0 0.0 0.0 0.00 0.00 0.00 94 1013.9
20260905062540 26 0 0.0 1.6 0.00 0.00 0.00 94 1014.0
20260905062037 26 0 0.0 1.6 0.00 0.00 0.00 94 1013.9
20260905061611 26 0 0.0 1.6 0.00 0.00 0.00 93 1014.1
20260905061043 26 0 0.0 0.0 0.00 0.00 0.00 94 1014.2
20260905060540 26 0 0.0 1.6 0.00 0.00 0.00 94 1014.3
20260905060100 26 0 0.0 1.6 0.00 0.00 0.00 93 1014.2
20260905055539 26 0 0.0 0.0 0.00 0.00 0.00 94 1014.2
20260905055040 26 0 0.0 0.0 0.00 0.00 0.00 93 1014.2
20260905054600 26 0 0.0 0.0 0.00 0.00 0.00 93 1014.2
20260905054040 26 0 0.0 0.0 0.00 0.00 0.00 93 1014.2
20260905053541 26 0 0.0 0.0 0.00 0.00 0.00 93 1014.1
20260905053100 26 0 0.0 0.0 0.00 0.00 0.00 93 1014.2
20260905052539 26 0 0.0 0.0 0.00 0.00 0.00 93 1014.1
20260905052043 26 0 0.0 1.6 0.00 0.00 0.00 93 1014.0
20260905051554 26 0 0.0 1.6 0.00 0.00 0.00 93 1014.1
20260905051039 26 0 0.0 1.6 0.00 0.00 0.00 93 1013.9
20260905050538 26 0 0.0 0.0 0.00 0.00 0.00 93 1014.0
20260905050059 26 0 0.0 0.0 0.00 0.00 0.00 93 1014.0
20260905045540 26 0 0.0 0.0 0.00 0.00 0.00 92 1013.9
20260905045038 26 0 0.0 0.0 0.00 0.00 0.00 92 1013.9
20260905044603 26 0 0.0 1.6 0.00 0.00 0.00 92 1013.9
20260905044040 26 0 0.0 1.6 0.00 0.00 0.00 92 1014.0
20260905043537 26 0 0.0 1.6 0.00 0.00 0.00 92 1014.0
20260905043121 26 0 0.0 1.6 0.00 0.00 0.00 92 1014.0
20260905042537 27 0 0.0 1.6 0.00 0.00 0.00 92 1013.9
20260905042039 27 0 0.0 1.6 0.00 0.00 0.00 91 1014.0
20260905041557 27 0 0.0 1.6 0.00 0.00 0.00 91 1014.0
20260905041038 27 51 0.0 1.6 0.00 0.00 0.00 92 1013.9
20260905040538 27 0 0.0 0.0 0.00 0.00 0.00 91 1013.9